FW4170 Weather Reports


Display with metric or nautical units.
time (UTC)temp
F
wind
direction
speed
MPH
gust
MPH
rain 1hr
in
rain 24hr
in
rain mn
in
humidity
%
barometer
mb
20260507220506 51 180 0.0 2.0 0.00 0.31 0.00 99 1016.0
20260507220007 51 180 0.0 2.0 0.00 0.31 0.00 99 1016.0
20260507215506 51 180 0.0 2.0 0.00 0.31 0.31 99 1016.0
20260507215006 51 180 0.0 1.0 0.00 0.32 0.31 99 1016.0
20260507214506 51 180 0.0 1.0 0.00 0.33 0.31 99 1016.0
20260507214006 51 186 0.0 2.0 0.00 0.33 0.31 99 1015.9
20260507213505 51 183 1.0 2.0 0.00 0.33 0.31 99 1016.0
20260507213006 52 180 0.0 2.0 0.00 0.33 0.31 99 1015.9
20260507212506 52 180 0.0 1.0 0.00 0.33 0.31 99 1015.9
20260507212006 52 180 0.0 2.0 0.00 0.33 0.31 99 1015.9
20260507211506 52 174 0.0 2.0 0.00 0.33 0.31 99 1016.0
20260507211006 52 173 0.0 2.0 0.00 0.33 0.31 99 1016.0
20260507210506 52 135 0.0 2.0 0.00 0.33 0.31 99 1015.8
20260507210006 52 146 0.0 2.0 0.00 0.33 0.31 99 1015.7
20260507205506 52 155 0.0 2.0 0.00 0.33 0.31 99 1015.8
20260507205006 52 180 0.0 2.0 0.00 0.33 0.31 99 1015.7
20260507204527 52 0 0.0 0.0 0.00 0.33 0.31 99 1015.7
20260507204006 52 180 0.0 1.0 0.00 0.33 0.31 98 1015.7
20260507203505 52 180 0.0 1.0 0.00 0.33 0.31 98 1015.9
20260507203006 52 180 0.0 1.0 0.00 0.33 0.31 98 1015.7
20260507202506 52 196 1.0 3.0 0.00 0.33 0.31 98 1015.9
20260507202006 52 207 1.0 3.0 0.00 0.33 0.31 98 1015.7
20260507201505 52 198 1.0 3.0 0.00 0.33 0.31 98 1015.7
20260507201006 52 176 1.0 3.0 0.00 0.33 0.31 98 1015.6
20260507200506 52 0 0.0 0.0 0.00 0.33 0.31 98 1015.7
20260507200006 52 0 0.0 0.0 0.00 0.33 0.31 97 1015.5
20260507195505 52 45 0.0 1.0 0.00 0.33 0.31 97 1015.6
20260507195026 52 45 0.0 2.0 0.00 0.33 0.31 97 1015.5
20260507194526 52 45 1.0 2.0 0.00 0.33 0.31 97 1015.6
20260507194005 52 45 1.0 2.0 0.00 0.33 0.31 97 1015.5
20260507193505 52 55 1.0 2.0 0.00 0.33 0.31 96 1015.5
20260507193006 52 84 0.0 2.0 0.00 0.33 0.31 96 1015.4
20260507192505 52 90 0.0 2.0 0.00 0.33 0.31 96 1015.5
20260507192005 52 74 0.0 2.0 0.00 0.33 0.31 96 1015.5
20260507191505 52 50 0.0 2.0 0.01 0.33 0.31 95 1015.4
20260507191005 52 20 0.0 2.0 0.09 0.33 0.31 95 1015.5
20260507190505 52 47 0.0 2.0 0.11 0.33 0.31 95 1015.4
20260507190006 52 90 1.0 2.0 0.14 0.33 0.31 94 1015.3
20260507185526 52 82 1.0 2.0 0.15 0.33 0.31 94 1015.1
20260507185005 52 46 0.0 2.0 0.22 0.33 0.31 94 1015.2
20260507184505 52 41 0.0 2.0 0.31 0.33 0.31 93 1015.2
20260507184006 52 42 1.0 3.0 0.31 0.33 0.31 93 1015.1
20260507183505 52 45 1.0 3.0 0.31 0.33 0.31 92 1015.0
20260507183005 52 68 1.0 2.0 0.31 0.33 0.31 92 1014.8
20260507182505 52 44 1.0 2.0 0.31 0.33 0.31 91 1014.8
20260507182005 52 109 2.0 7.0 0.31 0.33 0.31 90 1014.8
20260507181505 52 177 4.0 8.0 0.30 0.32 0.30 88 1014.7
20260507181005 52 219 3.0 8.0 0.21 0.24 0.21 85 1014.9
20260507180527 53 302 3.0 8.0 0.20 0.22 0.20 81 1014.6
20260507180005 53 319 5.0 9.0 0.17 0.19 0.17 79 1014.4
20260507175505 55 283 8.0 17.0 0.15 0.18 0.15 77 1014.4
20260507175005 57 250 9.0 17.0 0.08 0.11 0.08 74 1014.5
20260507174505 58 234 5.0 16.0 0.00 0.02 0.00 72 1014.4
20260507174005 58 208 2.0 4.0 0.00 0.02 0.00 72 1014.4
20260507173526 59 196 2.0 4.0 0.00 0.02 0.00 71 1014.3
20260507173005 59 209 2.0 4.0 0.00 0.02 0.00 71 1014.2
20260507172505 59 207 2.0 4.0 0.00 0.02 0.00 71 1014.1
20260507172005 59 207 1.0 4.0 0.00 0.02 0.00 71 1014.1
20260507171505 59 242 1.0 4.0 0.00 0.02 0.00 71 1014.2
20260507171005 59 242 1.0 3.0 0.00 0.02 0.00 71 1014.1
20260507170506 59 229 2.0 5.0 0.00 0.02 0.00 71 1014.0
20260507170005 59 246 3.0 5.0 0.00 0.02 0.00 71 1014.1
20260507165505 59 270 3.0 5.0 0.00 0.02 0.00 71 1014.1
20260507165005 59 277 3.0 4.0 0.00 0.02 0.00 71 1014.0
20260507164505 59 277 3.0 6.0 0.00 0.02 0.00 71 1014.0
20260507164005 59 279 4.0 6.0 0.00 0.02 0.00 71 1014.0
20260507163505 59 272 4.0 8.0 0.00 0.02 0.00 72 1014.0
20260507163005 59 269 4.0 8.0 0.00 0.02 0.00 72 1013.9
20260507162505 59 276 5.0 8.0 0.00 0.02 0.00 72 1013.9
20260507162005 59 286 6.0 11.0 0.00 0.02 0.00 72 1013.9
20260507161504 59 267 7.0 11.0 0.00 0.02 0.00 71 1013.8
20260507161025 60 237 8.0 13.0 0.00 0.02 0.00 71 1013.9
20260507160505 60 238 9.0 15.0 0.00 0.02 0.00 70 1013.9
20260507160005 60 249 8.0 15.0 0.00 0.02 0.00 70 1013.8
20260507155526 61 256 7.0 10.0 0.00 0.02 0.00 68 1013.8
20260507155026 61 273 6.0 9.0 0.00 0.02 0.00 67 1013.8
20260507154526 61 272 6.0 9.0 0.00 0.02 0.00 66 1013.8
20260507154026 62 254 6.0 11.0 0.00 0.02 0.00 65 1013.7
20260507153505 62 254 6.0 11.0 0.00 0.02 0.00 61 1013.7
20260507153005 62 248 6.0 10.0 0.00 0.02 0.00 60 1013.8
20260507152505 62 247 6.0 10.0 0.00 0.02 0.00 60 1013.6
20260507152025 63 249 6.0 11.0 0.00 0.02 0.00 60 1013.6
20260507151505 63 230 6.0 11.0 0.00 0.02 0.00 59 1013.5
20260507151004 64 216 5.0 10.0 0.00 0.02 0.00 59 1013.5
20260507150504 64 217 5.0 7.0 0.00 0.02 0.00 59 1013.5
20260507150005 64 210 5.0 7.0 0.00 0.02 0.00 60 1013.5
20260507145504 64 206 5.0 8.0 0.00 0.02 0.00 60 1013.4
20260507145005 64 202 6.0 11.0 0.00 0.02 0.00 60 1013.5
20260507144505 64 192 6.0 11.0 0.00 0.02 0.00 60 1013.5
20260507144004 64 179 3.0 9.0 0.00 0.02 0.00 62 1013.5
20260507143505 63 145 1.0 6.0 0.00 0.02 0.00 63 1013.5
20260507143005 63 107 1.0 4.0 0.00 0.02 0.00 63 1013.4
20260507142504 63 108 1.0 2.0 0.00 0.02 0.00 63 1013.4
20260507142004 63 90 1.0 3.0 0.00 0.02 0.00 63 1013.5
20260507141504 63 71 2.0 6.0 0.00 0.02 0.00 63 1013.5
20260507141007 63 55 2.0 6.0 0.00 0.02 0.00 62 1013.4
20260507140504 63 128 2.0 6.0 0.00 0.02 0.00 62 1013.5
20260507140005 63 177 1.0 2.0 0.00 0.02 0.00 61 1013.4
20260507135504 63 337 1.0 4.0 0.00 0.02 0.00 61 1013.4
20260507135026 63 4 2.0 6.0 0.00 0.02 0.00 61 1013.4
20260507134525 64 19 3.0 6.0 0.00 0.02 0.00 60 1013.4
20260507134005 64 346 2.0 5.0 0.00 0.02 0.00 58 1013.2
20260507133504 64 360 2.0 5.0 0.00 0.02 0.00 57 1013.2
20260507133005 64 31 2.0 7.0 0.00 0.02 0.00 57 1013.2
20260507132504 64 20 3.0 7.0 0.00 0.02 0.00 57 1013.3
20260507132004 64 304 2.0 4.0 0.00 0.02 0.00 58 1013.3
20260507131504 64 282 3.0 6.0 0.00 0.02 0.00 58 1013.5
20260507131004 64 275 4.0 8.0 0.00 0.02 0.00 58 1013.4
20260507130504 64 265 4.0 8.0 0.00 0.02 0.00 57 1013.4
20260507130004 64 212 1.0 5.0 0.00 0.02 0.00 56 1013.6
20260507125504 65 113 1.0 3.0 0.00 0.02 0.00 57 1013.6
20260507125004 65 135 1.0 3.0 0.00 0.02 0.00 57 1013.6
20260507124504 64 156 3.0 6.0 0.00 0.02 0.00 57 1013.7
20260507124004 64 154 4.0 6.0 0.00 0.02 0.00 57 1013.6
20260507123504 63 157 3.0 6.0 0.00 0.02 0.00 59 1013.6
20260507123004 63 186 3.0 5.0 0.00 0.02 0.00 60 1013.7
20260507122504 63 229 2.0 6.0 0.00 0.02 0.00 60 1013.7
20260507122004 63 249 1.0 6.0 0.00 0.02 0.00 60 1013.8
20260507121504 63 280 1.0 2.0 0.00 0.02 0.00 61 1013.8
20260507121004 63 220 2.0 4.0 0.00 0.02 0.00 61 1013.8
20260507120504 63 226 3.0 5.0 0.00 0.02 0.00 61 1013.8
20260507120005 63 260 4.0 6.0 0.00 0.02 0.00 61 1013.9
20260507115504 63 278 3.0 6.0 0.00 0.02 0.00 61 1013.9
20260507115004 63 296 2.0 5.0 0.00 0.02 0.00 62 1013.9
20260507114504 62 289 1.0 4.0 0.00 0.02 0.00 62 1013.8
20260507114025 62 267 2.0 6.0 0.00 0.02 0.00 63 1014.0
20260507113504 62 271 3.0 6.0 0.00 0.02 0.00 64 1014.0
20260507113004 61 221 4.0 9.0 0.00 0.02 0.00 69 1014.1
20260507112504 61 197 5.0 9.0 0.00 0.02 0.00 70 1014.1
20260507112005 61 209 4.0 6.0 0.00 0.02 0.00 68 1014.2
20260507111506 61 226 4.0 6.0 0.00 0.02 0.00 67 1014.1
20260507111025 61 219 4.0 7.0 0.00 0.02 0.00 67 1014.1
20260507110504 61 222 4.0 7.0 0.00 0.02 0.00 67 1014.0
20260507110004 61 220 4.0 7.0 0.00 0.02 0.00 67 1014.0
20260507105525 61 219 4.0 8.0 0.00 0.02 0.00 66 1014.2
20260507105004 61 225 5.0 8.0 0.00 0.02 0.00 65 1014.1
20260507104504 61 228 4.0 8.0 0.00 0.02 0.00 66 1014.0
20260507104004 62 214 3.0 6.0 0.00 0.02 0.00 65 1013.9
20260507103503 62 221 4.0 8.0 0.00 0.02 0.00 65 1013.8
20260507103025 62 244 4.0 8.0 0.00 0.02 0.00 64 1013.8
20260507102504 62 240 4.0 7.0 0.00 0.02 0.00 64 1013.9
20260507102006 62 217 4.0 7.0 0.00 0.02 0.00 61 1013.8
20260507101504 62 209 3.0 6.0 0.00 0.02 0.00 62 1013.8
20260507101004 61 216 2.0 4.0 0.00 0.02 0.00 64 1013.8
20260507100504 61 218 2.0 4.0 0.00 0.02 0.00 65 1013.7
20260507100005 62 198 2.0 4.0 0.00 0.02 0.00 65 1013.8
20260507095504 61 201 3.0 6.0 0.00 0.02 0.00 66 1013.7
20260507095004 61 213 3.0 6.0 0.00 0.02 0.00 66 1013.6
20260507094504 61 233 3.0 6.0 0.00 0.02 0.00 66 1013.7
20260507094003 61 245 3.0 6.0 0.00 0.02 0.00 66 1013.7
20260507093504 61 222 3.0 7.0 0.00 0.02 0.00 65 1013.6
20260507093004 61 200 4.0 8.0 0.00 0.02 0.00 66 1013.6
20260507092504 61 205 6.0 11.0 0.00 0.02 0.00 66 1013.5
20260507092025 61 197 7.0 14.0 0.00 0.02 0.00 66 1013.4
20260507091504 61 182 7.0 14.0 0.00 0.02 0.00 66 1013.4
20260507091004 61 204 6.0 11.0 0.00 0.02 0.00 65 1013.4
20260507090503 62 212 6.0 11.0 0.00 0.02 0.00 64 1013.3
20260507090004 62 188 7.0 11.0 0.00 0.02 0.00 60 1013.2
20260507085503 62 184 6.0 11.0 0.00 0.02 0.00 60 1013.2
20260507085003 62 180 5.0 10.0 0.00 0.02 0.00 60 1013.2
20260507084504 63 177 6.0 10.0 0.00 0.02 0.00 60 1013.2
20260507084004 63 173 5.0 10.0 0.00 0.02 0.00 60 1013.2
20260507083525 63 161 3.0 6.0 0.00 0.02 0.00 60 1013.1
20260507083004 62 69 2.0 4.0 0.00 0.02 0.00 60 1013.0
20260507082524 62 94 2.0 4.0 0.00 0.02 0.00 59 1013.0
20260507082004 62 193 2.0 7.0 0.00 0.02 0.00 60 1012.9
20260507081504 63 196 2.0 7.0 0.00 0.02 0.00 60 1013.0
20260507081025 63 198 3.0 8.0 0.00 0.02 0.00 61 1013.0
20260507080504 62 178 4.0 8.0 0.00 0.02 0.00 61 1012.9
20260507080004 62 80 3.0 6.0 0.00 0.02 0.00 61 1012.9
20260507075503 62 34 2.0 5.0 0.00 0.02 0.00 62 1012.9
20260507075003 62 31 2.0 6.0 0.00 0.02 0.00 62 1012.8
20260507074504 62 59 3.0 7.0 0.00 0.02 0.00 62 1012.9
20260507074003 62 125 2.0 7.0 0.00 0.02 0.00 68 1013.0
20260507073503 61 139 1.0 3.0 0.00 0.02 0.00 69 1012.9
20260507073004 61 76 2.0 7.0 0.00 0.02 0.00 69 1013.0
20260507072503 60 41 3.0 7.0 0.00 0.02 0.00 69 1012.9
20260507072003 60 35 2.0 6.0 0.00 0.02 0.00 70 1013.0
20260507071504 60 44 3.0 6.0 0.00 0.02 0.00 70 1013.0
20260507071003 60 25 3.0 5.0 0.00 0.02 0.00 70 1012.8
20260507070504 60 18 2.0 5.0 0.00 0.02 0.00 70 1012.8
20260507070025 60 35 2.0 5.0 0.00 0.02 0.00 70 1012.8
20260507065507 60 52 2.0 5.0 0.00 0.02 0.00 71 1012.8
20260507065008 60 31 1.0 4.0 0.00 0.02 0.00 72 1012.8
20260507064507 59 12 1.0 4.0 0.00 0.02 0.00 73 1012.8
20260507064007 59 7 2.0 4.0 0.00 0.02 0.00 73 1012.8
20260507063507 58 19 2.0 4.0 0.00 0.02 0.00 74 1012.8
20260507063029 58 36 2.0 4.0 0.00 0.02 0.00 74 1012.8
20260507062507 57 30 2.0 4.0 0.00 0.02 0.00 75 1012.9
20260507062007 57 10 2.0 4.0 0.00 0.02 0.00 76 1012.9
20260507061507 57 291 1.0 3.0 0.00 0.02 0.00 79 1012.8
20260507061007 57 224 1.0 2.0 0.00 0.02 0.00 79 1012.9
20260507060507 56 172 1.0 2.0 0.00 0.02 0.00 80 1012.8
20260507060008 56 128 1.0 3.0 0.00 0.02 0.00 80 1012.8
20260507055507 56 125 2.0 3.0 0.00 0.02 0.00 81 1012.7
20260507055007 56 101 2.0 4.0 0.00 0.02 0.00 81 1012.6
20260507054507 56 120 2.0 4.0 0.00 0.02 0.00 81 1012.6
20260507054028 55 140 2.0 4.0 0.00 0.02 0.00 81 1012.5
20260507053507 55 125 2.0 4.0 0.00 0.02 0.00 82 1012.5
20260507053007 55 112 1.0 3.0 0.00 0.02 0.00 82 1012.5
20260507052507 54 65 2.0 4.0 0.00 0.02 0.00 82 1012.3
20260507052028 54 50 2.0 4.0 0.00 0.02 0.00 82 1012.4
20260507051507 54 35 0.0 4.0 0.00 0.02 0.00 83 1012.2
20260507051007 54 236 0.0 2.0 0.00 0.02 0.00 83 1012.3
20260507050507 54 241 0.0 2.0 0.00 0.02 0.00 84 1012.2
20260507050007 54 207 1.0 2.0 0.00 0.02 0.00 84 1012.4
20260507045507 54 167 0.0 2.0 0.00 0.02 0.00 84 1012.3
20260507045007 53 184 1.0 2.0 0.00 0.02 0.00 84 1012.3
20260507044507 53 188 1.0 2.0 0.00 0.02 0.00 84 1012.4
20260507044007 53 199 0.0 2.0 0.00 0.02 0.00 84 1012.4
20260507043507 53 209 1.0 2.0 0.00 0.02 0.00 84 1012.3
20260507043007 53 214 1.0 2.0 0.00 0.02 0.00 84 1012.3
20260507042507 53 192 0.0 2.0 0.00 0.02 0.00 84 1012.3
20260507042007 53 163 1.0 2.0 0.00 0.02 0.00 84 1012.2
20260507041507 53 53 2.0 4.0 0.00 0.02 0.00 84 1012.2
20260507041007 53 39 2.0 4.0 0.00 0.02 0.00 84 1012.1
20260507040507 53 33 1.0 4.0 0.00 0.02 0.00 84 1012.1
20260507040028 53 19 0.0 2.0 0.00 0.02 0.00 88 1012.1
20260507035507 53 176 1.0 2.0 0.00 0.02 0.00 88 1012.0
20260507035007 53 174 1.0 2.0 0.00 0.02 0.00 87 1012.1
20260507034507 53 180 1.0 2.0 0.00 0.02 0.00 87 1012.0
20260507034007 53 168 1.0 2.0 0.00 0.02 0.00 83 1012.1
20260507033507 53 94 0.0 2.0 0.00 0.02 0.00 83 1011.8
20260507033007 53 45 0.0 2.0 0.00 0.02 0.00 83 1011.9
20260507032507 53 45 0.0 1.0 0.00 0.02 0.00 83 1011.7
20260507032028 53 45 0.0 1.0 0.00 0.02 0.00 82 1011.8
20260507031507 53 39 0.0 4.0 0.00 0.02 0.00 82 1012.0
20260507031007 53 27 2.0 7.0 0.00 0.02 0.00 82 1011.9
20260507030528 53 25 3.0 7.0 0.00 0.02 0.00 82 1011.8
20260507030007 54 47 1.0 4.0 0.00 0.02 0.00 83 1012.0
20260507025529 54 74 1.0 4.0 0.00 0.02 0.00 83 1011.9
20260507025028 54 113 0.0 2.0 0.00 0.02 0.00 83 1012.0
20260507024507 54 337 0.0 2.0 0.00 0.02 0.00 83 1012.1
20260507024007 54 295 1.0 2.0 0.00 0.02 0.00 83 1012.0
20260507023507 54 255 0.0 2.0 0.00 0.02 0.00 82 1012.0
20260507023028 55 355 0.0 2.0 0.00 0.02 0.00 82 1011.9
20260507022507 55 18 1.0 4.0 0.00 0.02 0.00 82 1012.0
20260507022028 55 26 2.0 4.0 0.00 0.02 0.00 82 1012.0
20260507021506 55 35 2.0 4.0 0.00 0.02 0.00 83 1012.2
20260507021006 55 40 2.0 4.0 0.00 0.02 0.00 83 1012.1
20260507020507 55 41 2.0 4.0 0.00 0.02 0.00 83 1012.2
20260507020007 55 75 1.0 4.0 0.00 0.02 0.00 83 1012.2
20260507015506 56 197 1.0 2.0 0.00 0.02 0.00 83 1012.2
20260507015006 56 299 1.0 2.0 0.00 0.02 0.00 83 1012.3
20260507014507 56 329 1.0 4.0 0.00 0.02 0.00 83 1012.2
20260507014006 56 323 1.0 4.0 0.00 0.02 0.00 83 1012.4
20260507013506 56 294 1.0 3.0 0.00 0.02 0.00 83 1012.4
20260507013006 56 340 1.0 2.0 0.00 0.02 0.00 83 1012.4
20260507012506 56 90 1.0 3.0 0.00 0.02 0.00 83 1012.5
20260507012006 56 113 1.0 3.0 0.00 0.02 0.00 83 1012.4
20260507011506 56 132 1.0 4.0 0.00 0.02 0.00 83 1012.5
20260507010506 56 320 2.0 5.0 0.00 0.02 0.00 83 1012.4
20260507010007 56 326 2.0 5.0 0.00 0.02 0.00 83 1012.3
20260507005506 56 343 1.0 2.0 0.00 0.02 0.00 83 1012.3
20260507005006 56 129 0.0 2.0 0.00 0.02 0.00 83 1012.3
20260507004506 56 170 1.0 3.0 0.00 0.02 0.00 83 1012.3
20260507004007 56 162 1.0 3.0 0.00 0.02 0.00 83 1012.1
20260507003506 56 132 1.0 3.0 0.00 0.02 0.00 83 1012.1
20260507003027 56 109 1.0 2.0 0.00 0.02 0.00 83 1012.0
20260507002527 56 72 1.0 2.0 0.00 0.02 0.00 83 1011.6
20260507002027 56 45 0.0 2.0 0.00 0.02 0.00 83 1011.5
20260507001506 56 58 1.0 4.0 0.00 0.02 0.00 82 1011.5
20260507001028 56 36 1.0 4.0 0.00 0.02 0.00 82 1011.6
20260507000506 56 6 1.0 4.0 0.00 0.02 0.00 82 1011.6
20260507000006 56 360 0.0 2.0 0.00 0.02 0.00 82 1011.6
20260506235506 56 35 2.0 4.0 0.00 0.02 0.00 81 1011.6
20260506235006 56 36 3.0 4.0 0.00 0.02 0.00 81 1011.6
20260506234506 56 20 2.0 4.0 0.00 0.02 0.00 81 1011.7
20260506234006 56 5 2.0 4.0 0.00 0.02 0.00 81 1011.9
20260506233527 56 20 2.0 6.0 0.00 0.02 0.00 81 1011.8
20260506233006 56 30 3.0 6.0 0.00 0.02 0.00 81 1011.8
20260506232506 56 40 3.0 5.0 0.00 0.02 0.00 80 1011.9
20260506232006 56 42 4.0 6.0 0.00 0.02 0.00 80 1011.9
20260506231506 56 35 4.0 6.0 0.00 0.02 0.00 80 1011.9
20260506231006 57 25 2.0 5.0 0.00 0.02 0.00 80 1012.0
20260506230506 57 24 1.0 2.0 0.00 0.02 0.00 80 1011.9
20260506230006 57 23 1.0 3.0 0.00 0.02 0.00 80 1012.1
20260506225506 57 26 1.0 4.0 0.00 0.02 0.00 80 1011.9
20260506225006 57 57 1.0 4.0 0.01 0.02 0.00 80 1012.0
20260506224506 57 135 0.0 2.0 0.02 0.02 0.00 80 1012.1
20260506224006 57 123 1.0 4.0 0.02 0.02 0.00 80 1012.2
20260506223506 57 126 2.0 4.0 0.02 0.02 0.00 80 1012.2
20260506223006 57 168 2.0 6.0 0.02 0.02 0.00 80 1012.2
20260506222527 57 184 2.0 6.0 0.02 0.02 0.00 80 1012.0
20260506222006 57 183 2.0 3.0 0.02 0.02 0.00 79 1011.9
20260506221506 57 182 2.0 5.0 0.02 0.02 0.00 78 1012.0
20260506221006 57 180 3.0 5.0 0.02 0.02 0.00 77 1012.0